7 * 24
多渠道服务支持
STARLINK-38119(NORAD编号100009)是美国太空探索技术公司(SpaceX)星链低轨互联网星座的组成卫星,为第二代星链平台,设计目标是为全球用户提供高速低延迟的宽带网络服务,可支撑视频通话、在线游戏、高清流媒体传输等应用场景。 作为星链组网扩容批次的发射成员,该卫星部署于约550公里高度的近地轨道,轨道倾角适配星链对应壳层组网构型,设计寿命约5-7年,具备自主轨道机动和空间碎片规避能力。截至2026年7月,暂未查询到该卫星的公开详细发射记录及在轨运行状态的专项公开信息,其具体所属发射批次、组网分工等细节可通过官方航天测控数据库进一步查询。
美国
(US)
| 数据来源 | 国际轨道数据 |
| 星历时间: | 2026-07-28T04:01:36+0800 1天前 查看轨道信息 |
| 半长轴: | 6728.447km |
| 偏心率: | 0.0003678 |
| 轨道倾角: | 70.000° |
| 近地点辐角 | 284.048° |
| 升交点赤经 | 349.810° |
| 平近点角 | 76.031° |
| 近地点: | 347.835km |
| 远地点: | 352.785km |
| 周期: | 91.544分钟 |
| 每日圈数: | 15.730065 |